Showing default

QIANFAN-102, 66044

Orbit data source: Space-Track

QIANFAN-102, 66044 is a Chinese payload satellite in LEO that was launched on Fri, 17 Oct 2025 UTC via a CHANG ZHENG 6A launch vehicle from the Taiyaun Space Center, China (TSC). Payload-class satellites include a variety of spacecraft equipped with specific instruments for various scientific and technological missions. These include communications satellites like Starlink; space stations such as the ISS; scientific satellites like the Hubble; Earth observation satellites from companies like Planet Labs, Umbra, and HawkEye 360; GPS; miniature CubeSats for education and research; and military/defense satellites.

Loading next visibility...
Identifier
66044, 2025-233M
Orbit
LEO
Country
Flag of CNCN / PRC
Related business
Manufacturer
SECM
Mission
Operational Commercial Communications
Bus & Motor
QIANFAN, Unknown motor
Mass
267 kg wet, ~267 kg dry
Launch date (UTC)
2025-10-17 (7 months ago)
Launch vehicle
CHANG ZHENG 6A
Launch site
Taiyaun Space Center, China (TSC)
Object type
Payload
Rocket body
Debris
Shape & HBR
Box + 1 Pan, 14.5 m
Radar Cross Section
13.200 m²

Expand to show TLE details & history
Last TLE update: 7 hours ago

TLE from 7 hours ago
0 QIANFAN-102
1 66044U 25233M   26130.18430236  .00000124  00000-0  17379-3 0  9991
2 66044  89.0024  46.9365 0002197  72.6000 287.5391 13.51016202 28109
Epoch: 2026-05-10T04:25Z
TLE epoch observation values (Epoch: 2026-05-10T04:25:23.723Z)
Latitude
-0.00007°
Longitude
112.59663°
Altitude
1,070.983 km
Speed
7.317 km/s
True Right ascension
03h 07m 44s
True Declination
0° 00' 00"
Sunlit
Object was in daylight at epoch
Visualization orbit readout
Latitude
Unknown
Longitude
Unknown
Altitude
Unknown
Speed
Unknown
Apparent Right ascension
Unknown
Apparent Declination
Unknown
Sunlit
N/A
Visualization observer readout
Local Sidereal Time
19:44:08
Azimuth
Unknown
Elevation
Unknown
Doppler factor
Unknown
Orbital elements
Apogee altitude
1,067.208 km
Perigee altitude
1,063.938 km
Semi-major axis
7,443.71 km
Eccentricity
0.00022
Inclination
89.0024°
RAAN
46.9365°
Arg. of periapsis
72.6°
True anomaly
287.51509°
Mean anomaly
287.5391°
Eccentric anomaly
287.5271°
Mean motion
3.37955 °/min
Orbital period
106.52 mins
BSTAR
0.00017379
Loading maneuver chart data...
Computing Atmospheric mass density...
Loading historical data...
Loading historical data...
Loading historical data...
Loading historical data...
Loading historical data...
Loading historical data...
Loading historical data...

Documentation

Showing up to 5 results
|